Find Starlink 2400

NORAD ID: 47817 Int'l Des: 2021-018 Owner: SPXS Country: US Constellation: starlink operational
LEOCIRCULAR

Live Position

Loading 3D Globe...

About Starlink 2400

Description loading...

Upcoming Passes

Passes for default location (London). Set your location on the main map for personalized predictions.

Altitude History

Loading altitude history...

Two-Line Element Set

1 47817U 21018AG 26106.16524852 .00000438 00000-0 25891-4 0 9991
2 47817 53.1625 69.0061 0001345 82.4303 277.6851 15.31699155282458
Epoch: Apr 16, 2026 • Age: 8 hours

Current Status

Altitude 474.1 km
Velocity 7.63 km/s
Sub-Earth Point 42.38°N, 174.96°E
Launch Date Mar 11, 2021
Age 5 years
Type internet

Technical Details

Classification Payload
Mass 260.00 kg
Dry Mass 248.00 kg
Total Mass 260.00 kg
Length 0.20 m
Diameter 2.80 m
Span 9.00 m
Shape Box + pan
Manufacturer SPXS
Bus Type Starlink
Phase Status In Orbit
Owner/State SPXS/US

Most Searched